www.pogodaiklimat.ru

Погода и климат >> Архив погоды >> Россия >> Магаданская область >> Сусуман


ПОГОДА в Сусумане

  • Прогноз погоды в Сусумане
  • Монитор погоды в Сусумане
  • Климат города

АРХИВ ПОГОДЫ в Сусумане

Время (UTC), дата Ветер
(напр.,м/с)
 
Видим.   Явления Облачность Т
(С)
Тd
(С)
f
(%)
Тe
(С)
Тes
(С)
Комфортность P
(гПа)
Po
(гПа)
Тmin
(С)
Tmax
(С)
R
(мм)
S
(см)
03 16.03 ЮЗ 2 50 км ясно -16.1 -23.9 51 -21 -17 1023.4 938.7
06 16.03 ЮЗ 3 50 км ясно -12.5 -23.3 40 -19 -18 1020.8 937.4
09 16.03 ЮЗ 3 50 км ясно -18.8 -24.9 59 -26 -26 1023.1 937.6 -12.3
12 16.03 штиль 0 50 км ясно -27.7 -30.2 79 -28 -28 1026.9 938.1
15 16.03 СВ 1 50 км ясно -30.0 -32.9 76 -34 -34 опасность
обморожения
1028.4 938.7
18 16.03 СВ 2 50 км ясно -32.4 -35.7 72 -40 -40 опасность
обморожения
1030.0 939.3
21 16.03 штиль 0 50 км 3/0
[Ci fib]
-34.1 -37.6 70 -34 -34 опасность
обморожения
1032.3 940.8 -34.8 22
00 17.03 штиль 0 50 км 3/0
[Ci fib]
-20.7 -27.6 54 -21 -17 1028.1 941.5
03 17.03 Ю 1 50 км ясно -13.1 -23.9 40 -15 -10 1025.3 941.4
06 17.03 ЮЗ 2 50 км ясно -9.4 -21.2 38 -14 -12 1023.8 941.1
09 17.03 ЮЗ 3 50 км ясно -18.3 -24.0 61 -26 -26 1027.9 942.1 -9.1
12 17.03 В 1 50 км ясно -24.9 -27.5 79 -28 -28 1031.1 942.9
15 17.03 СВ 2 50 км ясно -27.7 -30.3 78 -35 -35 опасность
обморожения
1031.7 942.5
18 17.03 СВ 1 50 км ясно -29.4 -32.7 73 -33 -33 опасность
обморожения
1032.3 942.4
21 17.03 СВ 1 50 км ясно -31.4 -34.8 72 -36 -35 опасность
обморожения
1033.0 942.4 -31.5 22
00 18.03 штиль 0 50 км ясно -19.6 -26.5 54 -20 -15 1027.4 941.3
03 18.03 ЮЗ 2 50 км ясно -12.2 -21.6 45 -17 -12 1022.7 939.3
06 18.03 ЮЗ 3 50 км ясно -10.1 -19.6 46 -16 -15 1020.7 938.1
09 18.03 В 3 50 км 3/0
[Ac trans Ci fib]
-16.4 -22.1 61 -23 -23 1024.3 939.4 -9.8
12 18.03 штиль 0 50 км 6/0
[Ac trans Ci fib]
-21.8 -24.7 77 -22 -22 1026.6 939.8
15 18.03 Ю 1 50 км 4/0
[Ac trans Ci fib]
-23.9 -25.8 84 -27 -27 1027.6 940.0
18 18.03 СВ 1 50 км 3/0
[Ci fib]
-29.5 -32.4 76 -34 -34 опасность
обморожения
1030.2 940.5
21 18.03 СВ 1 50 км ясно -32.3 -35.8 71 -37 -36 опасность
обморожения
1032.1 941.2 -32.4 22
00 19.03 С 1 50 км ясно -19.5 -26.3 55 -22 -18 1026.9 940.9
03 19.03 ЮЗ 1 50 км ясно -10.2 -21.7 38 -12 -7 1022.1 939.3
06 19.03 штиль 0 50 км ясно -7.3 -22.0 30 -7 -6 1020.3 938.5
09 19.03 ЮВ 1 50 км ясно -19.0 -25.0 59 -22 -22 1024.9 939.1 -7.3
12 19.03 штиль 0 50 км ясно -28.4 -31.7 73 -28 -28 1029.1 939.9
15 19.03 СВ 1 50 км ясно -32.0 -35.0 75 -36 -36 опасность
обморожения
1030.6 940.0
18 19.03 С 1 50 км ясно -35.3 -39.1 68 -40 -40 опасность
обморожения
1032.5 940.5
21 19.03 СВ 2 50 км ясно -35.5 -39.4 67 -44 -44 опасность
обморожения
1032.9 940.8 -35.8 22
00 20.03 С 1 50 км ясно -23.7 -30.3 54 -27 -23 1027.9 940.4
03 20.03 штиль 0 50 км ясно -13.0 -27.0 30 -13 -7 1022.0 938.6
06 20.03 ЮЗ 1 50 км 9/0
[Ci fib]
-12.0 -21.5 45 -14 -13 1021.0 937.5
09 20.03 Ю 1 50 км 9/0
[Ci fib]
-15.1 -24.4 45 -18 -18 1021.6 937.5 -11.8
12 20.03 СВ 1 50 км 8/0
[Ci fib]
-18.9 -23.8 65 -22 -22 1023.3 937.7
15 20.03 СВ 2 50 км 4/0
[Ci fib]
-21.1 -24.4 75 -27 -27 1024.3 937.9
18 20.03 СВ 2 50 км 4/0
[Ci fib]
-21.5 -24.8 75 -28 -28 1024.6 938.1
21 20.03 СВ 2 50 км 10/1 1000 м
[Sc Ac As]
-22.1 -24.4 82 -28 -28 1025.8 939.0 -22.2 22
00 21.03 С 1 50 км 10/0
[Ac As]
-16.8 -24.3 52 -20 -18 1024.6 939.6
03 21.03 штиль 0 50 км 9/0
[Ac trans Ci fib]
-10.5 -16.8 60 -11 -6 1022.0 939.2
06 21.03 В 2 50 км 3/0
[Ac trans]
-6.5 -19.5 35 -10 -9 1020.6 939.0
09 21.03 СВ 1 50 км 3/3 1000 м
[Sc]
-13.1 -20.2 55 -15 -15 1023.7 939.9 -6.2
12 21.03 В 1 50 км 1/1 1000 м
[Sc]
-22.1 -25.5 74 -25 -25 1027.7 940.7
15 21.03 СВ 2 50 км ясно -23.3 -25.8 80 -30 -30 1028.6 941.1
18 21.03 ЮЗ 1 50 км 4/0
[Ci fib]
-27.3 -30.5 74 -31 -31 опасность
обморожения
1029.9 941.0
21 21.03 СВ 1 50 км 9/0
[Ac As Cs]
-21.4 -24.4 77 -25 -24 1027.6 940.8 -27.9 22
00 22.03 С 1 50 км 9/4 1000 м
[Sc Ac As]
-15.5 -22.3 56 -18 -17 1025.3 940.6
03 22.03 ЮЗ 1 50 км 9/4 1000 м
[Sc Ac trans Ci fib]
-8.4 -19.7 40 -10 -8 1021.9 939.6
06 22.03 З 1 50 км 6/3 1000 м
[Sc Ac trans Ci fib]
-6.2 -18.7 36 -8 -7 1019.9 938.5
09 22.03 ЮВ 2 50 км 3/0
[Ac trans]
-12.2 -19.3 55 -17 -17 1022.2 938.8 -5.3
12 22.03 Ю 2 50 км 3/0
[Ci fib]
-20.7 -23.5 78 -27 -27 1025.9 939.5
15 22.03 СВ 1 50 км 3/0
[Ci fib]
-25.2 -27.6 80 -29 -29 1028.1 940.0
18 22.03 С 1 50 км 3/0
[Ci fib]
-27.2 -29.8 78 -31 -31 опасность
обморожения
1029.1 940.3
21 22.03 СВ 2 50 км 4/0
[Ac trans Ci fib]
-27.7 -30.8 75 -35 -35 опасность
обморожения
1030.5 941.4 -29.1 22

 

Местоположение метеостанции Сусуман (Магаданская область, Россия): широта 62.78 долгота 148.10 высота над уровнем моря 655 м.

В архиве по умолчанию представлена погода в Сусумане за последнюю неделю. Архивные данные за месяц целиком и за предыдущие месяцы, начиная с января 2011 года, Вы можете получить, выбрав интересующий диапазон дат из раскрывающегося списка и нажав кнопку "Ввод!".

Внимание! Время в таблицах - всемирное. Для получения местного времени необходимо прибавить поправку, которая в Сусумане равна 11 ч.

Смотрите также архив погоды в соседних городах и на ближайших метеорологических станциях:

Погода в Ягодной (Магаданская область, Россия) (82 км)
Погода в Озере Джека Лондона (Магаданская область, Россия) (106 км)
Погода в Колымской (Магаданская область, Россия) (107 км)
Погода в Совхозе Эльген (Магаданская область, Россия) (127 км)
Погода в Усть-Бохапче (Магаданская область, Россия) (149 км)
Погода в Делянкире (Якутия, Россия) (171 км)
Погода в Усть-Омчуге (Магаданская область, Россия) (201 км)
Погода в Среднекане (Магаданская область, Россия) (218 км)
Погода в Сеймчане (Магаданская область, Россия) (219 км)
Погода в Оймяконе (Якутия, Россия) (258 км)

Пояснения к столбцам:

Ветер - указаны скорость ветра в м/с - средняя за 10 мин, порывы в срок и между сроками (в фигурных скобках) и направление, откуда дует ветер: С - северный, СВ - северо-восточный, В - восточный, ЮВ - юго-восточный, Ю - южный, ЮЗ - юго-западный, З - западный, СЗ - северо-западный.
Видимость - горизонтальная дальность видимости в метрах или километрах. При видимости от 1 до 10 км при отсутствии осадков обычно наблюдается дымка, при ухудшении видимости до 1 км и менее - туман. В сухую погоду видимость может ухудшаться дымом, пылью или мглою.
Явления - указаны атмосферные явления, наблюдавшиеся в срок или в последний час перед сроком; фигурными скобками обозначены явления, наблюдавшиеся между сроками (за 1-3 часа до срока); квадратными скобками обозначены град или гололедные отложения с указанием их диаметра в мм.
Облачность - указаны через наклонную черту общая и нижняя облачность в баллах и высота нижней границы облаков в метрах; квадратными скобками обозначены формы облаков: Ci - перистые, Cs - перисто-слоистые, Cc - перисто-кучевые, Ac - высококучевые, As - высокослоистые, Sc - слоисто-кучевые, Ns - слоисто-дождевые, Cu - кучевые, Cb - кучево-дождевые. Подробнее классификацию облаков см. в Атласе облаков (PDF).
T - Температура воздуха - температура, измеренная на высоте 2 м над землей.
Td - Температура точки росы - температура, при понижении до которой содержащийся в воздухе водяной пар достигнет насыщения.
f - Относительная влажность воздуха - влажноcть воздуха, измеренная на высоте 2 м над землей.
Te - Эффективная температура - температура, которую ощущает одетый по сезону человек в тени. Характеристика душности погоды. При расчете учитывается влияние влажности воздуха и скорости ветра на теплоощущения человека.
Tes - Эффективная температура на солнце - температура, которую ощущает человек, с поправкой на солнечный нагрев. Характеристика знойности погоды. Зависит от высоты солнца над горизонтом, облачности и скорости ветра. Ночью, в пасмурную погоду, а также при ветре 12 м/с и более поправка равна нулю.
P - Атмосферное давление - приведенное к уровню моря атмосферное давление.
Po - Атмосферное давление - измеренное на уровне метеостанции атмосферное давление.
Tmin - Минимальная температура - минимум температуры воздуха на высоте 2 м над землей.
Tmax - Максимальная температура - максимум температуры воздуха на высоте 2 м над землей.
R - Количество осадков - Количество выпавших осадков, мм. При наведении курсора мыши на число - период времени, за который выпало указанное количество осадков.
S - Снежный покров - Высота снежного покрова, см. При наведении курсора мыши на число - состояние снежного покрова и степень покрытия местности в баллах.